Weather History for KAJZ - February, 2013

Change the Weather History Date:

Monday, February 4, 2013

  Actual Average (KMTJ) Record (KMTJ)
Temperature  
Mean Temperature 38 °F 30 °F  
Max Temperature 47 °F 41 °F 56 °F (2015)
Min Temperature 28 °F 18 °F 1 °F (2011)
Degree Days  
Heating Degree Days 28 35  
Month to date heating degree days 143  
Since 1 July heating degree days 3948  
Cooling Degree Days 0 0  
Month to date cooling degree days 0  
Year to date cooling degree days 0  
Moisture  
Dew Point 27 °F    
Average Humidity 71    
Maximum Humidity 90    
Minimum Humidity 47    
Precipitation  
Precipitation 0.00 in 0.01 in 0.12 in (2004)
Month to date precipitation 0.05  
Year to date precipitation 0.70  
Sea Level Pressure  
Sea Level Pressure 30.16 in    
Wind  
Wind Speed 4 mph (ENE)    
Max Wind Speed 10 mph    
Max Gust Speed -    
Visibility 10 miles    
Events      
T = Trace of Precipitation, MM = Missing Value Source: NWS Daily Summary

Daily Weather History Graph

Daily Weather History Graph

Search for Another Location

Airport or City:

Trip Planner

Search our weather history database for the weather conditions in past years. The results will help you decide how hot, cold, wet, or windy it might be!

Date:

Astronomy

Feb. 04, 2013 Rise Set
Actual Time 7:15 AM MST 5:37 PM MST
Civil Twilight 6:47 AM MST 6:05 PM MST
Nautical Twilight 6:15 AM MST 6:37 PM MST
Astronomical Twilight 5:44 AM MST 7:08 PM MST
Moon 1:53 AM MST (2/4) 12:04 PM MST (2/4)
Length of Visible Light 11h 18m
Length of Day
10h 22m
Last Quarter, 36% of the Moon is Illuminated
Feb 4
Last Quarter
Feb 10
New
Feb 17
First Quarter
Feb 25
Full
Mar 4
Last Quarter

Hourly Weather History & Observations

Time (MST) Temp. Windchill Dew Point Humidity Pressure Visibility Wind Dir Wind Speed Gust Speed Precip Events Conditions
12:15 AM 32.0 °F 27.5 °F 28.2 °F 86% 30.17 in 10.0 mi North 4.6 mph - N/A   Overcast
12:55 AM 32.0 °F 28.7 °F 27.0 °F 82% 30.17 in 10.0 mi NNE 3.5 mph - N/A   Mostly Cloudy
1:15 AM 32.0 °F - 26.6 °F 80% 30.17 in 10.0 mi Calm Calm - N/A   Overcast
1:35 AM 32.0 °F - 26.6 °F 80% 30.18 in 10.0 mi Calm Calm - N/A   Overcast
1:55 AM 29.8 °F - 26.8 °F 88% 30.18 in 10.0 mi Calm Calm - N/A   Overcast
2:15 AM 30.6 °F - 27.3 °F 88% 30.17 in 10.0 mi Calm Calm - N/A   Overcast
4:15 AM 30.2 °F - 27.5 °F 90% 30.18 in 10.0 mi Calm Calm - N/A   Overcast
4:35 AM 30.6 °F - 28.0 °F 90% 30.17 in 10.0 mi Calm Calm - N/A   Overcast
4:55 AM 31.1 °F - 28.0 °F 88% 30.17 in 10.0 mi Calm Calm - N/A   Overcast
5:15 AM 31.1 °F - 27.7 °F 87% 30.17 in 10.0 mi Calm Calm - N/A   Overcast
5:35 AM 31.3 °F - 27.5 °F 86% 30.17 in 10.0 mi Calm Calm - N/A   Overcast
5:55 AM 31.5 °F 28.1 °F 26.8 °F 83% 30.17 in 10.0 mi ENE 3.5 mph - N/A   Overcast
6:15 AM 32.0 °F 28.7 °F 26.2 °F 79% 30.18 in 10.0 mi East 3.5 mph - N/A   Overcast
6:35 AM 31.3 °F 26.6 °F 25.0 °F 77% 30.18 in 10.0 mi ENE 4.6 mph - N/A   Overcast
6:55 AM 29.8 °F 23.0 °F 23.4 °F 77% 30.18 in 10.0 mi ENE 6.9 mph - N/A   Mostly Cloudy
7:15 AM 28.8 °F 23.7 °F 22.8 °F 78% 30.19 in 10.0 mi ENE 4.6 mph - N/A   Mostly Cloudy
7:35 AM 29.7 °F 26.1 °F 23.9 °F 79% 30.19 in 10.0 mi NNE 3.5 mph - N/A   Overcast
7:55 AM 32.0 °F 26.4 °F 23.5 °F 71% 30.20 in 10.0 mi ENE 5.8 mph - N/A   Overcast
8:15 AM 33.6 °F 26.8 °F 23.5 °F 67% 30.21 in 10.0 mi ENE 8.1 mph - N/A   Overcast
8:35 AM 33.8 °F 27.0 °F 22.1 °F 62% 30.21 in 10.0 mi East 8.1 mph - N/A   Overcast
8:55 AM 34.5 °F 27.9 °F 23.0 °F 63% 30.21 in 10.0 mi East 8.1 mph - N/A   Overcast
9:15 AM 34.5 °F 28.6 °F 23.7 °F 65% 30.21 in 10.0 mi ENE 6.9 mph - N/A   Scattered Clouds
9:35 AM 35.4 °F 31.5 °F 25.2 °F 66% 30.21 in 10.0 mi East 4.6 mph - N/A   Clear
9:55 AM 36.5 °F 32.7 °F 25.5 °F 64% 30.22 in 10.0 mi East 4.6 mph - N/A   Clear
10:15 AM 36.9 °F 33.1 °F 25.5 °F 64% 30.21 in 10.0 mi ESE 4.6 mph - N/A   Clear
10:35 AM 38.3 °F 34.8 °F 27.0 °F 64% 30.21 in 10.0 mi SE 4.6 mph - N/A   Clear
10:55 AM 39.4 °F - 28.4 °F 65% 30.21 in 10.0 mi Calm Calm - N/A   Clear
11:35 AM 40.3 °F 38.2 °F 28.6 °F 63% 30.18 in 10.0 mi NE 3.5 mph - N/A   Clear
11:55 AM 40.3 °F - 27.5 °F 60% 30.17 in 10.0 mi Calm Calm - N/A   Clear
12:15 PM 42.1 °F - 28.0 °F 58% 30.16 in 10.0 mi Calm Calm - N/A   Clear
12:35 PM 42.6 °F - 27.0 °F 54% 30.15 in 10.0 mi Calm Calm - N/A   Clear
12:55 PM 43.0 °F 41.3 °F 28.0 °F 56% 30.14 in 10.0 mi NW 3.5 mph - N/A   Clear
1:15 PM 43.7 °F 42.1 °F 27.9 °F 54% 30.13 in 10.0 mi SE 3.5 mph - N/A   Clear
1:35 PM 45.0 °F - 27.7 °F 51% 30.12 in 10.0 mi Calm Calm - N/A   Clear
1:55 PM 45.7 °F - 28.2 °F 51% 30.12 in 10.0 mi Calm Calm - N/A   Clear
2:15 PM 45.7 °F - 26.6 °F 47% 30.11 in 10.0 mi Calm Calm - N/A   Clear
2:35 PM 45.5 °F - 26.8 °F 48% 30.11 in 10.0 mi Calm Calm - N/A   Clear
2:55 PM 47.5 °F - 28.2 °F 47% 30.10 in 10.0 mi WSW 4.6 mph - N/A   Clear
3:15 PM 47.3 °F - 29.3 °F 50% 30.10 in 10.0 mi SW 8.1 mph - N/A   Clear
3:35 PM 47.3 °F - 30.0 °F 51% 30.10 in 10.0 mi SW 6.9 mph - N/A   Scattered Clouds
3:55 PM 47.8 °F - 30.7 °F 52% 30.11 in 10.0 mi SW 10.4 mph - N/A   Scattered Clouds
4:15 PM 45.3 °F 40.1 °F 29.8 °F 55% 30.11 in 10.0 mi SW 10.4 mph - N/A   Mostly Cloudy
4:35 PM 44.1 °F 39.5 °F 29.8 °F 57% 30.10 in 10.0 mi SW 8.1 mph - N/A   Scattered Clouds
4:55 PM 43.2 °F 39.0 °F 28.9 °F 57% 30.11 in 10.0 mi South 6.9 mph - N/A   Clear
5:15 PM 42.6 °F 39.9 °F 28.9 °F 58% 30.10 in 10.0 mi SE 4.6 mph - N/A   Clear
5:35 PM 40.8 °F 38.8 °F 29.8 °F 65% 30.11 in 10.0 mi ENE 3.5 mph - N/A   Clear
5:55 PM 37.9 °F 31.5 °F 30.0 °F 73% 30.11 in 10.0 mi NE 9.2 mph - N/A   Clear
6:15 PM 37.6 °F 32.3 °F 29.8 °F 74% 30.13 in 10.0 mi NNE 6.9 mph - N/A   Clear
6:35 PM 36.0 °F 32.1 °F 29.5 °F 77% 30.14 in 10.0 mi NE 4.6 mph - N/A   Clear
6:55 PM 36.9 °F 32.2 °F 29.3 °F 74% 30.14 in 10.0 mi NE 5.8 mph - N/A   Clear
7:15 PM 35.6 °F 29.2 °F 29.1 °F 77% 30.15 in 10.0 mi NE 8.1 mph - N/A   Clear
7:35 PM 35.8 °F 28.8 °F 29.1 °F 77% 30.15 in 10.0 mi ENE 9.2 mph - N/A   Clear
7:55 PM 35.1 °F 30.1 °F 28.9 °F 78% 30.15 in 10.0 mi ENE 5.8 mph - N/A   Clear
8:15 PM 33.4 °F 28.1 °F 28.4 °F 82% 30.16 in 10.0 mi NE 5.8 mph - N/A   Clear
8:35 PM 33.8 °F 27.0 °F 28.4 °F 81% 30.16 in 10.0 mi NNE 8.1 mph - N/A   Clear
8:55 PM 33.8 °F 28.6 °F 28.4 °F 81% 30.17 in 10.0 mi NNE 5.8 mph - N/A   Clear
9:15 PM 32.2 °F 26.7 °F 28.0 °F 85% 30.17 in 10.0 mi NE 5.8 mph - N/A   Clear
9:35 PM 31.6 °F - 27.9 °F 86% 30.17 in 10.0 mi Calm Calm - N/A   Clear
9:55 PM 31.1 °F 25.4 °F 27.3 °F 86% 30.17 in 10.0 mi NNE 5.8 mph - N/A   Clear
10:15 PM 32.0 °F 26.4 °F 27.9 °F 85% 30.17 in 10.0 mi NE 5.8 mph - N/A   Clear
10:35 PM 32.4 °F 26.9 °F 27.7 °F 83% 30.17 in 10.0 mi NE 5.8 mph - N/A   Clear
10:55 PM 32.0 °F 27.5 °F 27.5 °F 83% 30.17 in 10.0 mi NNE 4.6 mph - N/A   Clear
11:15 PM 32.0 °F - 27.5 °F 83% 30.17 in 10.0 mi Calm Calm - N/A   Clear
11:35 PM 31.5 °F 28.1 °F 27.1 °F 84% 30.16 in 10.0 mi ESE 3.5 mph - N/A   Clear
11:55 PM 29.7 °F 24.7 °F 26.4 °F 88% 30.17 in 10.0 mi East 4.6 mph - N/A   Clear